Regional Weather Roundup
Issued by NWS Upton, NY

Current Version | Previous Version | Text Only | Print | Product List | Glossary On
Versions: 1 2 3 4 5 6 7 8 9 10 11 12 13 14 15 16 17 18 19 20 21 22 23 24 25 26 27 28 29 30 31 32 33 34 35 36 37 38 39 40 41 42 43 44 45 46 47 48 49 50
000
ASUS41 KOKX 040318
RWROKX

REGIONAL WEATHER ROUNDUP
NATIONAL WEATHER SERVICE NEW YORK NY
1100 PM EDT FRI JUL 03 2015

NOTE: "FAIR" INDICATES FEW OR NO CLOUDS BELOW 12,000 FEET WITH NO
SIGNIFICANT WEATHER AND/OR OBSTRUCTIONS TO VISIBILITY.

NYZ071-072-176-178-NJZ106-104-040400-
NEW YORK CITY METRO AREA


CITY           SKY/WX    TMP DP  RH WIND       PRES   REMARKS
CENTRAL PARK   CLOUDY    72  59  63 CALM      30.01R
LAGUARDIA APRT CLOUDY    72  59  63 S8        29.98R
KENNEDY INTL   CLOUDY    71  63  75 SE7       30.00R
NEWARK/LIBERTY CLOUDY    73  60  63 S7        29.98R
BRNX BOT. GARD   N/A     70  59  68 E10       29.99F
TETERBORO      CLOUDY    73  58  59 S5        29.96S
$$

NYZ177-179-078>081-040400-
LONG ISLAND NEW YORK

CITY           SKY/WX    TMP DP  RH WIND       PRES   REMARKS
FARMINGDALE    CLOUDY    70  59  68 S5        30.00R
ISLIP          CLOUDY    69  60  73 S5        29.98S
SHIRLEY        CLOUDY    67  61  81 S3        30.00S
WESTHAMPTON    CLOUDY    62  60  93 CALM      30.01S
MONTAUK POINT    N/A     68  63  84 VRB5      30.02R
$$

NYZ052-065-067-040400-
HUDSON VALLEY

CITY           SKY/WX    TMP DP  RH WIND       PRES   REMARKS
WHITE PLAINS   MOCLDY    66  58  75 SE3       29.99S
NEWBURGH       MOCLDY    70  55  60 VRB5      29.99S
MONTGOMERY     MOCLDY    63  58  83 CALM      29.97S
POUGHKEEPSIE   CLOUDY    65  57  75 CALM      29.96S
ALBANY         CLOUDY    65  50  58 CALM      29.97S
$$

NJZ001-105-106-008-010-013-015-019>022-104-040400-
NEW JERSEY

CITY           SKY/WX    TMP DP  RH WIND       PRES   REMARKS
NEWARK/LIBERTY CLOUDY    73  60  63 S7        29.98R
TETERBORO      CLOUDY    73  58  59 S5        29.96S
CALDWELL       CLOUDY    73  60  63 CALM      29.98R
MORRISTOWN     MOCLDY    66  63  88 CALM      29.97F
SOMERVILLE     CLOUDY    69  61  75 CALM      29.95S
SUSSEX         MOCLDY    64  60  87 CALM      29.97S
ANDOVER          N/A     64  61  90 CALM      29.98S
TRENTON        CLOUDY    71  63  75 S6        29.97R
MILLVILLE      CLOUDY    68  65  90 E3        29.97S
ATLANTIC CITY  CLOUDY    69  65  86 SE5       29.97F
WRIGHTSTOWN    CLOUDY    68  62  80 S3        29.95F
TOMS RIVER     MOCLDY    64  61  88 CALM      29.98F
BELMAR         CLOUDY    70  57  64 CALM      29.98S
$$

PAZ047>061-062-071-040400-
EASTERN PENNSYLVANIA

CITY           SKY/WX    TMP DP  RH WIND       PRES   REMARKS
PHILADELPHIA   CLOUDY    73  64  73 SE3       29.97S
ALLENTOWN      PTCLDY    74  61  63 CALM      29.96S
SCRANTON       MOCLDY    70  60  70 CALM      29.97R
$$

CTZ002-004>006-009-010-012-RIZ004-006-007-MAZ004-011-015-040400-
SOUTHERN NEW ENGLAND
 IN CT

CITY           SKY/WX    TMP DP  RH WIND       PRES   REMARKS
BRADLEY INTL   MOCLDY    67  54  63 S7        29.98R
HARTFORD       MOCLDY    66  57  72 S6        29.99R
DANBURY        MOCLDY    66  54  65 CALM      30.01R
WTRBRY/OXFORD  MOCLDY    64  55  72 S5        30.02S
BRIDGEPORT     CLOUDY    70  60  70 S3        29.99R
MERIDEN        MOCLDY    63  57  81 CALM      29.99S
NEW HAVEN      MOCLDY    67  61  81 CALM      30.00R
CHESTER        FAIR      63  61  94 CALM      30.02R
GROTON         MOCLDY    65  61  87 S3        30.00R
WILLIMANTIC    MOCLDY    65  57  75 CALM      30.00S

 IN RI

CITY           SKY/WX    TMP DP  RH WIND       PRES   REMARKS
PROVIDENCE     MOCLDY    65  56  72 S3        30.01S
BLOCK ISLAND   MOCLDY    64  61  88 S8        30.01S
WESTERLY       MOCLDY    63  59  87 CALM      30.01S

 IN MA

CITY           SKY/WX    TMP DP  RH WIND       PRES   REMARKS
BOSTON         MOCLDY    66  55  67 S8        29.99R
WORCESTER      MOCLDY    63  54  72 SW7       30.01S
WESTFIELD      MOCLDY    59  55  87 S3        29.99R
PROVINCETOWN   PTCLDY    63   7  11 S9        30.01S
NANTUCKET      PTCLDY    58  56  93 S3        30.01F FOG
$$

ANZ330-335-338-340-345-350-353-355-040400-
COASTAL MARINE OBSERVATIONS


STATION/POSITION TIME  SKY/WX   TEMP    WIND        PRES    VSBY  WAVE
                                AIR SEA DIR/SP/G                  HT/PER
                 (UTC)          (F)     (DEG/KT/KT) (MB)    (MI)  (FT/S)
NY HARB ENTRANCE 0250            70 69  160/  8/  8 1015.0          3/ 8
4S FIRE IS       0203               71                N/A           3/ 8
20S FIRE ISLAND  0250            69 69  160/  6/  6 1015.3          3/ 8
GREAT SOUTH BAY  0200            70 75  200/  6/ 10   N/A
23SW MTP         0250            68 68  180/  6/  6 1015.8          3/ 7
HUDSON CANYON    NOT AVBL
KINGS POINT      0200            71 68  180/  6/  9 1014.6
CENTRAL LI SOUND NOT AVBL
EASTERN LI SOUND 0200            65 65  160/  4/  4   N/A
ROBBINS REEF     0200            72     160/ 10/ 12 1013.9
$$


>>>>>>>>>>>>>>>>>>>>>>>>>>>> KEY <<<<<<<<<<<<<<<<<<<<<<<<<<<
>                                                          <
>     SKY/WX - SKY CONDITION/PRESENT WEATHER               <
>     TMP    - TEMPERATURE IN FAHRENHEIT                   <
>     DP     - DEWPOINT IN FAHRENHEIT                      <
>     RH     - RELATIVE HUMIDITY IN PERCENT                <
>     WIND   - DIRECTION AND SPEED IN MPH                  <
>     PRES   - MEAN SEA LEVEL PRESSURE IN INCHES OF HG     <
>     WCI    - WIND CHILL INDEX                            <
>     VSB    - VISIBILITY IN MILES                         <
>     HX     - HEAT INDEX                                  <
>     TC     - TEMPERATURE IN CELSIUS                      <
>     VRB    - VARIABLE WIND DIRECTION                     <
>                                                          <
>>>>>>>>>>>>>>>>>>>>>>>>>>>> KEY <<<<<<<<<<<<<<<<<<<<<<<<<<<




USA.gov is the U.S. government's official web portal to all federal, state and local government web resources and services.